Regional Weather Roundup
Issued by NWS

Home | Current Version | Previous Version | Graphics & Text | Print | Product List | Glossary On
Versions: 1 2 3 4 5 6 7 8 9 10 11 12 13 14 15 16 17 18 19 20 21 22 23 24 25 26 27 28 29 30 31 32 33 34 35 36 37 38 39 40 41 42 43 44 45 46 47 48 49 50
000
ASUS45 KPSR 311810
RWRAZ

ARIZONA REGIONAL HOURLY WEATHER ROUNDUP
NATIONAL WEATHER SERVICE PHOENIX AZ
1100 AM MST SAT JAN 31 2015

NOTE: FAIR INDICATES FEW OR NO CLOUDS BELOW 12,000 FEET WITH NO
SIGNIFICANT WEATHER AND/OR OBSTRUCTIONS TO VISIBILITY.

AZZ001>003-036-311900-
NORTHWEST ARIZONA

CITY           SKY/WX    TMP DP  RH WIND       PRES   REMARKS
BULLHEAD CITY  PTSUNNY   59  48  67 N15       29.92R
KINGMAN        CLOUDY    48  44  86 N9        29.93R
6HR MIN TEMP:  45; 6HR MAX TEMP:  48; 6HR PCP:  0.01;

$$

AZZ004>008-015-016-018-311900-
NORTH CENTRAL ARIZONA

CITY           SKY/WX    TMP DP  RH WIND       PRES   REMARKS
GRAND CANYON   PTSUNNY   44  36  73 NE6       29.95R
6HR MIN TEMP:  35; 6HR MAX TEMP:  44; 6HR PCP: TRACE;

PRESCOTT       CLOUDY    48  39  71 NW3       29.92R
6HR MIN TEMP:  41; 6HR MAX TEMP:  49; 6HR PCP: TRACE;

FLAGSTAFF      CLOUDY    40  34  79 E7        29.94R
6HR MIN TEMP:  33; 6HR MAX TEMP:  40; 6HR PCP:  0.01;

PAYSON         CLOUDY    48  41  76 E6        29.93S
$$

AZZ009>014-017-311900-
NORTHEAST ARIZONA

CITY           SKY/WX    TMP DP  RH WIND       PRES   REMARKS
WINSLOW        CLOUDY    43  40  89 NW5       29.94R
6HR MIN TEMP:  40; 6HR MAX TEMP:  43;

SAINT JOHNS    CLOUDY    45  39  79 NW7       29.91S
6HR MIN TEMP:  39; 6HR MAX TEMP:  45; 6HR PCP: TRACE;

WINDOW ROCK    CLOUDY    36  33  89 CALM      29.93R
6HR MIN TEMP:  34; 6HR MAX TEMP:  36; 6HR PCP:  0.01;

SHOW LOW       CLOUDY    41  36  81 CALM      29.95S
$$

AZZ023-311900-
GREATER PHOENIX AREA

CITY           SKY/WX    TMP DP  RH WIND       PRES   REMARKS
PHOENIX        LGT RAIN  57  53  86 NE7       29.85R
6HR MIN TEMP:  55; 6HR MAX TEMP:  59; 6HR PCP: TRACE;

BUCKEYE          N/A     57  57 100 CALM      29.87R
GLENDALE       PTSUNNY   61  55  82 CALM      29.87R
LUKE AFB       PTSUNNY   60  54  80 NE5       29.85R
DEER VALLEY    CLOUDY    58  51  78 NE3       29.86R
6HR MIN TEMP:  54; 6HR MAX TEMP:  58;

SCOTTSDALE     CLOUDY    58  51  78 CALM      29.87R
6HR MIN TEMP:  54; 6HR MAX TEMP:  58;

MESA-FALCON    CLOUDY    54  54 100 NW6       29.86R
MESA-GATEWAY   CLOUDY    55  52  88 CALM      29.88R
CHANDLER       CLOUDY    57  55  94 CALM      29.87R
$$

AZZ027-028-311900-
SOUTHWEST MARICOPA COUNTY AND PINAL COUNTY

CITY           SKY/WX    TMP DP  RH WIND       PRES   REMARKS
CASA GRANDE    CLOUDY    55  54  94 CALM      29.87R
6HR MIN TEMP:  54; 6HR MAX TEMP:  55;

GILA BEND      LGT RAIN  57  56  95 CALM      29.86S
6HR MIN TEMP:  56; 6HR MAX TEMP:  58; 6HR PCP:  0.02;

$$

AZZ503-504-507>509-311900-
SOUTHEAST ARIZONA

CITY           SKY/WX    TMP DP  RH WIND       PRES   REMARKS
TUCSON         LGT RAIN  53  49  86 CALM      29.90R
6HR MIN TEMP:  52; 6HR MAX TEMP:  53; 6HR PCP:  0.36;

DAVIS-MONTHAN  LGT RAIN  52  51  96 W1        29.88R
6HR MIN TEMP:  51; 6HR MAX TEMP:  52; 6HR PCP:  0.25;

NOGALES        CLOUDY    51  46  83 SE8       29.89S
6HR MIN TEMP:  47; 6HR MAX TEMP:  51; 6HR PCP:  0.03;

SIERRA VISTA   CLOUDY    47  44  90 MISG      29.90S
6HR MIN TEMP:  44; 6HR MAX TEMP:  47; 6HR PCP:  0.10;

DOUGLAS        CLOUDY    50  46  86 S10       29.91S
6HR MIN TEMP:  45; 6HR MAX TEMP:  50; 6HR PCP:  0.05;

SAFFORD        LGT RAIN  50  47  89 E8        29.90R
6HR MIN TEMP:  47; 6HR MAX TEMP:  50; 6HR PCP:  0.04;

$$

AZZ020-021-025-026-031-311900-
SOUTHWEST ARIZONA

CITY           SKY/WX    TMP DP  RH WIND       PRES   REMARKS
YUMA           CLOUDY    63  50  62 N8        29.88R
6HR MIN TEMP:  53; 6HR MAX TEMP:  63;

$$

CAZ031-033-041-043-047-048-061-311900-
SOUTHERN CALIFORNIA

CITY           SKY/WX    TMP DP  RH WIND       PRES   REMARKS
DOWNTOWN L.A.  CLOUDY    64  54  69 NW3       29.92R
6HR MIN TEMP:  57; 6HR MAX TEMP:  65;

L.A. AIRPORT   PTSUNNY   63  54  72 CALM      29.92R
6HR MIN TEMP:  55; 6HR MAX TEMP:  63;

SAN DIEGO      PTSUNNY   62  53  72 S3        29.94R
6HR MIN TEMP:  59; 6HR MAX TEMP:  62;

BURBANK        MOSUNNY   59  52  77 VRB3      29.91S
6HR MIN TEMP:  53; 6HR MAX TEMP:  59;

ONTARIO        PTSUNNY   58  51  78 CALM      29.92S
6HR MIN TEMP:  51; 6HR MAX TEMP:  59;

RIVERSIDE      MOSUNNY   57  51  80 CALM      29.92S
6HR MIN TEMP:  50; 6HR MAX TEMP:  58;

PALM SPRINGS   PTSUNNY   63  50  62 VRB3      29.92R
6HR MIN TEMP:  59; 6HR MAX TEMP:  63; 6HR PCP: TRACE;

EL CENTRO NAS  PTSUNNY   66  50  56 N6        29.89R
6HR MIN TEMP:  49; 6HR MAX TEMP:  66;

IMPERIAL       PTSUNNY   65  50  58 CALM      29.88R
6HR MIN TEMP:  48; 6HR MAX TEMP:  65;

BLYTHE         CLOUDY    61  51  70 NW13      29.89R
6HR MIN TEMP:  53; 6HR MAX TEMP:  61;

NEEDLES        PTSUNNY   60  48  64 N13       29.91R
6HR MIN TEMP:  55; 6HR MAX TEMP:  60;

$$

NVZ020-UTZ003-311900-
SOUTHERN NEVADA-UTAH

CITY           SKY/WX    TMP DP  RH WIND       PRES   REMARKS
LAS VEGAS      PTSUNNY   57  42  57 N6        29.92R
6HR MIN TEMP:  49; 6HR MAX TEMP:  57; 6HR PCP: TRACE;

SALT LAKE CITY MOSUNNY   40  31  70 NW13      30.05R WCI  32
6HR MIN TEMP:  34; 6HR MAX TEMP:  41;

$$

NMZ009-TXZ055-311900-
NEW MEXICO-WEST TEXAS

CITY           SKY/WX    TMP DP  RH WIND       PRES   REMARKS
ALBUQUERQUE    CLOUDY    36  34  92 NW5       29.95R FOG     WCI  32
6HR MIN TEMP:  32; 6HR MAX TEMP:  36; 6HR PCP:  0.09;

EL PASO        CLOUDY    48  44  86 N5        29.92S
6HR MIN TEMP:  44; 6HR MAX TEMP:  48; 6HR PCP:  0.15;

$$


........................KEY........................
SKY/WX - SKY CONDITION/WEATHER
TMP    - TEMPERATURE IN FAHRENHEIT
DP     - DEW POINT IN FAHRENHEIT
RH     - RELATIVE HUMIDITY IN PERCENT
WIND   - DIRECTION AND SPEED IN MILES PER HOUR (MPH)
VRB    - VARIABLE WIND DIRECTION
PRES   - MEAN SEA LEVEL PRESSURE IN INCHES OF MERCURY
         F - FALLING PRESSURE   R - RISING PRESSURE
         S - STEADY PRESSURE
VSB    - VISIBILITY IN MILES
HX     - HEAT INDEX IN FAHRENHEIT
WCI    - WIND CHILL INDEX IN FAHRENHEIT
TC     - TEMPERATURE IN CELSIUS WHICH IS ALSO KNOWN AS
         TEMPERATURE IN CENTIGRADE
AFB    - AIR FORCE BASE
         LUKE AFB IS LUKE AIR FORCE BASE
         DAVIS-MONTHAN IS DAVIS-MONTHAN AIR FORCE BASE
NAS    - NAVAL AIR STATION
         EL CENTRO NAS IS EL CENTRO NAVAL AIR STATION
N/A    - NOT AVAILABLE



USA.gov is the U.S. government's official web portal to all federal, state and local government web resources and services.